Location: Bothwell
(41.7170°N, 112.2589°W)
Time: 01:41:29
(UTC+00:00)

Tiros 1 - Pass Details

Date: 13 May 2026
Orbit: 618 x 649 km, 48.4° (Epoch: 6 June)

Event Time Altitude Azimuth Distance (km) Brightness Sun altitude
Rises 11:37:01 0° 293° (WNW) 2,897 10.2 -6.4°
Reaches altitude 10° 11:39:27 10° 301° (WNW) 1,987 9.4 -6.0°
Maximum altitude 11:43:46 40° 12° (NNE) 907 8.4 -5.3°
Drops below altitude 10° 11:48:04 10° 83° (E) 1,977 11.0 -4.7°
Sets 11:50:29 0° 91° (E) 2,882 11.7 -4.3°
